Flag for Canada Weather past 2 weeks in Levis, Quebec, Canada

Now
68 °F

Passing clouds.


Feels Like: 68 °F
Forecast: 62 / 73 °F
Wind: 5 mph from West

Location: Quebec Weather Station

Current Time: Jul 30, 2015 at 11:51:24 PM

Latest Report: Jul 30, 2015 at 11:00 PM


Visibility: 10 mi

Pressure: 29.64 "Hg

Humidity: 94%

Dew point: 66 °F

Location of LevisLocation

Historic Weather in Levis — Graph

°F

Levis temperature yesterday

Maximum temperature yesterday: 86 °F (at 4:00 PM)
Minimum temperature yesterday: 61 °F (at 5:00 AM)
Average temperature yesterday: 72 °F

Past Weeks' High & Low Weather Summary

 TemperatureHumidityPressure
High86 °F (Jul 29, 4:00 PM)100% (Jul 18, 3:00 PM)30.13 "Hg (Jul 18, 3:00 PM)
Low46 °F (Jul 16, 1:00 AM)31% (Jul 28, 2:00 PM)29.51 "Hg (Jul 21, 5:00 PM)
Average65 °F80%29.84 "Hg
* Reported Jul 15 10:00 PM — Jul 30 10:00 PM, Levis, Weather by CustomWeather, © 2015

Note: Actual official high and low records may vary slightly from our data, if they occured in-between our weather recording intervals... More about our weather records

Advertising

Levis weather history for previous 24 hours

 ConditionsComfort  
Time TempWeatherWind HumidityBarometerVisibility
10:00 PM
Thu, Jul 30
72 °FPartly cloudy.8 mph88%29.64 "Hg15 mi
9:00 PM72 °FPartly sunny.5 mph94%29.64 "Hg8 mi
8:00 PM72 °FMostly cloudy.No wind94%29.64 "Hg10 mi
7:00 PM72 °FPartly sunny.6 mph94%29.64 "Hg11 mi
6:51 PM72 °FBroken clouds.5 mph94%29.64 "Hg12 mi
6:00 PM72 °FRain showers. Fog.8 mph88%29.64 "Hg4 mi
5:00 PM77 °FSprinkles. Cloudy.17 mph79%29.64 "Hg10 mi
4:54 PM79 °FSprinkles. Broken clouds.16 mph74%29.64 "Hg15 mi
4:00 PM79 °FBroken clouds.17 mph74%29.64 "Hg15 mi
3:00 PM77 °FPartly sunny.14 mph83%29.66 "Hg13 mi
2:00 PM81 °FSprinkles. Mostly cloudy.6 mph70%29.67 "Hg20 mi
1:00 PM81 °FMore clouds than sun.6 mph62%29.69 "Hg20 mi
12:00 PM81 °FScattered showers. Broken clouds.2 mph62%29.72 "Hg20 mi
11:00 AM77 °FBroken clouds.6 mph65%29.74 "Hg20 mi
10:00 AM75 °FPartly sunny.7 mph65%29.75 "Hg25 mi
9:00 AM73 °FPartly sunny.5 mph69%29.78 "Hg25 mi
8:00 AM70 °FPartly sunny.6 mph73%29.79 "Hg20 mi
7:00 AM68 °FPartly sunny.6 mph78%29.80 "Hg30 mi
6:00 AM64 °FPassing clouds.3 mph88%29.80 "Hg30 mi
5:00 AM66 °FPassing clouds.6 mph83%29.81 "Hg15 mi
4:00 AM68 °FPassing clouds.6 mph78%29.81 "Hg15 mi
3:00 AM70 °FMostly cloudy.6 mph69%29.82 "Hg15 mi
2:00 AM68 °FPartly cloudy.5 mph78%29.84 "Hg15 mi
1:53 AM68 °FPartly cloudy.5 mph78%29.84 "Hg15 mi
1:00 AM68 °FPartly cloudy.3 mph78%29.85 "Hg15 mi
12:00 AM68 °FPassing clouds.3 mph78%29.86 "Hg15 mi
11:00 PM
Wed, Jul 29
70 °FPassing clouds.5 mph69%29.87 "Hg15 mi
Weather by CustomWeather, © 2015

See weather overviewHow to use our weather pages